Regional Weather Roundup
Issued by NWS

Home | Current Version | Previous Version | Text Only | Print | Product List | Glossary Off
Versions: 1 2 3 4 5 6 7 8 9 10 11 12 13 14 15 16 17 18 19 20 21 22 23 24 25 26 27 28 29 30 31 32 33 34 35 36 37 38 39 40 41 42 43 44 45 46 47 48 49 50

131
ASUS43 KMKX 240600
RWRWI

WISCONSIN REGIONAL WEATHER ROUNDUP
NATIONAL WEATHER SERVICE MILWAUKEE/SULLIVAN WI
1200 AM CST FRI FEB 24 2017

NOTE: "FAIR" INDICATES FEW OR NO CLOUDS BELOW 12,000 FEET WITH NO
SIGNIFICANT WEATHER AND/OR OBSTRUCTIONS TO VISIBILITY.

WIZ001-002-006>008-014>016-023>028-240700-
NORTHWEST WISCONSIN

CITY           SKY/WX    TMP DP  RH WIND       PRES   REMARKS
SUPERIOR ARPT  CLOUDY    25  16  67 N7        30.02S WCI  18
ASHLAND        CLOUDY    27  18  69 N9        29.98R WCI  18
6HR MIN TEMP:  26; 6HR MAX TEMP:  29;

HAYWARD        CLOUDY    27  18  69 N9        29.92F WCI  18
6HR MIN TEMP:  26; 6HR MAX TEMP:  29;

SIREN          CLOUDY    27  20  73 NE12G20   29.95F WCI  17
CUMBERLAND     CLOUDY    28  21  74 NE15      29.90F WCI  17
RICE LAKE      CLOUDY    29  24  79 N13       29.91F WCI  19
CHETEK         CLOUDY    30  23  76 N9        29.88F WCI  21
LADYSMITH      CLOUDY    30  24  78 N9        29.90F WCI  22
EAU CLAIRE     LGT SNOW  32  25  74 NE12G22   29.85F WCI  23
MENOMONIE      DRIZZLE   32  25  74 N14G21    29.86F WCI  22
NEW RICHMOND   CLOUDY    29  23  76 N17       29.89F WCI  17
OSCEOLA        CLOUDY    29  22  75 NE9       29.94F WCI  21
$$

WIZ003>005-009-010-017-018-240700-
NORTH CENTRAL WISCONSIN

CITY           SKY/WX    TMP DP  RH WIND       PRES   REMARKS
MANITOWISH WTR CLOUDY    25  25 100 NE3       29.89F
ARBOR VITAE    CLOUDY    28  25  89 N3          N/A
WOODRUFF       CLOUDY    28  25  89 N3          N/A
RHINELANDER    CLOUDY    29  21  72 NE7       29.89S WCI  22
6HR MIN TEMP:  29; 6HR MAX TEMP:  33;

EAGLE RIVER    CLOUDY    26  22  82 NE6       29.89R WCI  20
LAND O LAKES   CLOUDY    25  24  93 CALM      29.91F
PHILLIPS       CLOUDY    27  24  86 NE12G17   29.90R WCI  17
TOMAHAWK       CLOUDY    28  21  74 N7        29.89S WCI  21
MEDFORD        FLURRIES  30  24  79 NE13      29.82F WCI  20
MERRILL        NOT AVBL
$$

WIZ029-030-035-036-043>047-240700-
CENTRAL WISCONSIN

CITY           SKY/WX    TMP DP  RH WIND       PRES   REMARKS
WAUSAU         FLURRIES  33  26  75 NE12      29.81F WCI  24
6HR MIN TEMP:  33; 6HR MAX TEMP:  39; 6HR PCP: TRACE;

MOSINEE        FLURRIES  32  30  93 NE13      29.83F WCI  22
MARSHFIELD     LGT SNOW  31  29  92 NE9       29.81R VSB 3/4 WCI  23
6HR MIN TEMP:  31; 6HR MAX TEMP:  39; 6HR PCP: TRACE;

STEVENS POINT  LGT SNOW  32  25  76 E12       29.83F WCI  23
WAUPACA        CLOUDY    36  26  67 E15       29.84S WCI  26
WAUTOMA        LGT SNOW  32  29  88 NE17G30   29.79F FOG     WCI  21
6HR MIN TEMP:  32; 6HR MAX TEMP:  39;

WISC RAPIDS    LGT SNOW  34  28  79 E14G25    29.80F WCI  25
6HR MIN TEMP:  34; 6HR MAX TEMP:  42; 6HR PCP: TRACE;

CAMP DOUGLAS   LGT SNOW  32  32 100 NE12      29.73F VSB 1   WCI  23
$$

WIZ011>013-019>022-031-037>040-048>050-240700-
NORTHEAST WISCONSIN

CITY           SKY/WX    TMP DP  RH WIND       PRES   REMARKS
ANTIGO         CLOUDY    31  26  81 NE15      29.86R WCI  20
SHAWANO        CLOUDY    34  28  79 NE10      29.86F WCI  26
6HR MIN TEMP:  34; 6HR MAX TEMP:  39;

OCONTO         CLOUDY    32  26  78 E7        29.90F WCI  26
STURGEON BAY   FLURRIES  33  24  69 NE10G18   29.89F WCI  25
6HR MIN TEMP:  33; 6HR MAX TEMP:  35; 6HR PCP: TRACE;

GREEN BAY      FLURRIES  34  30  85 NE17      29.84F WCI  23
6HR MIN TEMP:  34; 6HR MAX TEMP:  38; 6HR PCP: TRACE;

MANITOWOC      NOT AVBL
APPLETON       FLURRIES  32  25  74 NE14G23   29.82F WCI  22
CLINTONVILLE   CLOUDY    34  27  75 E16G24    29.85F WCI  23
OSHKOSH        LGT SNOW  32  29  88 NE15      29.80F FOG     WCI  22
6HR MIN TEMP:  32; 6HR MAX TEMP:  37; 6HR PCP:  0.01;

$$

WIZ032>034-041-042-053>061-240700-
SOUTHWEST WISCONSIN

CITY           SKY/WX    TMP DP  RH WIND       PRES   REMARKS
LA CROSSE      LGT SNOW  35  32  88 N12       29.77F FOG     WCI  27
6HR MIN TEMP:  35; 6HR MAX TEMP:  44; 6HR PCP:  0.07;

SPARTA         LGT RAIN  35  32  88 NE10G17   29.77F WCI  27
VIROQUA        CLOUDY    33  33  99 NE16      29.72S WCI  22
BOSCOBEL       HVY RAIN  35  31  85 NE15G35   29.72R FOG     WCI  25
6HR MIN TEMP:  34; 6HR MAX TEMP:  45; 6HR PCP:  0.35;

PRAIRIE DU CHI LGT SNOW  33  33  96 NE17G29   29.67F WCI  23
PLATTEVILLE    CLOUDY    34  34 100 NE28G33   29.62F WCI  21
$$

WIZ056-057-062-063-064-067-068-240700-
SOUTH CENTRAL WISCONSIN

CITY           SKY/WX    TMP DP  RH WIND       PRES   REMARKS
REEDSBURG      LGT SNOW  32  32 100 NE16      29.73F WCI  21
BARABOO/DELLS  LGT SNOW  32  31  96 NE13G18   29.75S WCI  22
LONE ROCK      NOT AVBL
MINERAL POINT  LGT RAIN  34  34 100 NE21G30   29.65F WCI  22
MADISON        LGT RAIN  33  31  92 NE20G26   29.73F WCI  21
6HR MIN TEMP:  32; 6HR MAX TEMP:  38; 6HR PCP:  0.25;

MIDDLETON      CLOUDY    34  33  96 NE16G24   29.73F WCI  24
WATERTOWN      CLOUDY    33  33 100 NE14      29.73F WCI  23
MONROE         CLOUDY    32  32 100 NE25G33   29.65F WCI  19
JANESVILLE     CLOUDY    36  36 100 NE15G24   29.68F WCI  26
$$

WIZ051-052-058>065-066-070>072-240700-
SOUTHEAST WISCONSIN

CITY           SKY/WX    TMP DP  RH WIND       PRES   REMARKS
MILWAUKEE      LGT RAIN  35  32  88 NE21G29   29.75F FOG     WCI  24
6HR MIN TEMP:  35; 6HR MAX TEMP:  37; 6HR PCP:  0.31;

WAUKESHA       RAIN      32  32 100 NE21G28   29.75F WCI  20
MILWAUKEE/TIMM LGT RAIN  32  32 100 NE14G23   29.79F WCI  22
RACINE         RAIN      36  33  89 NE22G31   29.76F WCI  25
6HR MIN TEMP:  36; 6HR MAX TEMP:  37; 6HR PCP:  0.28;

KENOSHA        CLOUDY    36  34  92 NE24G33   29.72F WCI  24
6HR MIN TEMP:  36; 6HR MAX TEMP:  37; 6HR PCP:  0.25;

FOND DU LAC    HVY SNOW  33  29  85 NE21G28   29.79F VSB 1/4 WCI  21
6HR MIN TEMP:  33; 6HR MAX TEMP:  37; 6HR PCP:  0.08;

SHEBOYGAN      SNOW      33  31  92 NE23G36   29.80F VSB 1/2 WCI  21
6HR MIN TEMP:  33; 6HR MAX TEMP:  35; 6HR PCP:  0.05;

WEST BEND      LGT SNOW  32  32 100 NE16G25   29.77F WCI  21
JUNEAU         MIX PCPN  32  31  96 NE20G26   29.75F WCI  20
$$

LSZ147-162-240700-
LAKE SUPERIOR

STATION/POSITION TIME  TEMP    WIND        PRES    WAVE
                       AIR SEA DIR/SP/G            HT/PER
                 (UTC) (F)     (DEG/KT/KT) (MB)    (FT/S)
DEVILS ISLAND    0500   29      10/ 19/ 21 1016.4R
PORT WING        0540   29      30/ 15/ 18 1016.3R
SAXON HARBOR     0540   32      20/ 18/ 19 1014.9R
$$

LMZ867-665-643>646-240700-
LAKE MICHIGAN

STATION/POSITION TIME  TEMP    WIND        PRES    WAVE
                       AIR SEA DIR/SP/G            HT/PER
                 (UTC) (F)     (DEG/KT/KT) (MB)    (FT/S)
CHAMBERS ISLAND  0540   33      40/ 12/ 16 1012.5F
NORTHPORT PIER   0540   33      50/ 10/ 12 1012.9F
SISTER BAY       0505   33      20/  6/ 12   N/A
KEWAUNEE LAKESHO 0530   33      40/ 18/ 24 1011.1F
SHEBOYGAN LAKESH 0500   33      20/ 28/ 31 1010.4F
PORT WASHINGTON  0530   35      40/ 20/ 27 1010.2F
MILWAUKEE LAKESH 0530   35      20/ 21/ 24   N/A
KENOSHA   LAKESH 0500   37      20/ 18/ 21 1007.8
$$

TC  - TEMPERATURE IN CELSIUS
VSB - VISIBILITY IN STATUTE MILES
WCI - WIND CHILL INDEX
HX  - HEAT INDEX





USA.gov is the U.S. government's official web portal to all federal, state and local government web resources and services.